,,Stat6,,Stat2,,Stat8,,Stat9,,Stat10,,Wind1,,Wind1,
time,status,PA1M_AVG,status,PR1M_SUM,status,RH1M_AVG,status,SR1M_AVG,status,TA1M_AVG,status,W1dAve1m,status,W1sAve1m,
2005-11-19, 00:00:00,VALID,918.087,VALID,0,VALID,100,VALID,-0.0169808,VALID,19.6721,VALID,1,VALID,0.707698,
2005-11-19, 00:01:00,VALID,918.071,VALID,0,VALID,100,VALID,-0.0339617,VALID,19.6689,VALID,355,VALID,0.551314,
2005-11-19, 00:02:00,VALID,918.054,VALID,0,VALID,100,VALID,-0.0339617,VALID,19.6527,VALID,11,VALID,1.17454,
2005-11-19, 00:03:00,VALID,918.057,VALID,0,VALID,100,VALID,-0.0679233,VALID,19.6602,VALID,9,VALID,1.29062,
2005-11-19, 00:04:00,VALID,918.06,VALID,0,VALID,100,VALID,-0.0339617,VALID,19.6627,VALID,9,VALID,1.06536,
2005-11-19, 00:05:00,VALID,918.061,VALID,0,VALID,100,VALID,-0.0169808,VALID,19.6435,VALID,10,VALID,1.37872,
2005-11-19, 00:06:00,VALID,918.061,VALID,0,VALID,100,VALID,-0.0169808,VALID,19.6463,VALID,3,VALID,0.603516,
2005-11-19, 00:07:00,VALID,918.043,VALID,0,VALID,100,VALID,0,VALID,19.6492,VALID,4,VALID,0.611737,
2005-11-19, 00:08:00,VALID,918.024,VALID,0,VALID,100,VALID,-0.0169808,VALID,19.643,VALID,30,VALID,1.08008,
2005-11-19, 00:09:00,VALID,918.018,VALID,0,VALID,100,VALID,0,VALID,19.6525,VALID,28,VALID,0.916016,
2005-11-19, 00:10:00,VALID,918.011,VALID,0,VALID,100,VALID,0,VALID,19.6659,VALID,19,VALID,0.654576,
2005-11-19, 00:11:00,VALID,918.004,VALID,0,VALID,100,VALID,0,VALID,19.6589,VALID,15,VALID,0.602515,
2005-11-19, 00:12:00,VALID,917.992,VALID,0,VALID,100,VALID,-0.0169808,VALID,19.6659,VALID,16,VALID,0.665737,
2005-11-19, 00:13:00,VALID,917.98,VALID,0,VALID,100,VALID,-0.0169808,VALID,19.6781,VALID,18,VALID,0.562309,
2005-11-19, 00:14:00,VALID,917.97,VALID,0,VALID,100,VALID,0,VALID,19.6821,VALID,18,VALID,0.885653,
2005-11-19, 00:15:00,VALID,917.952,VALID,0,VALID,100,VALID,-0.0169808,VALID,19.6721,VALID,11,VALID,0.69848,
2005-11-19, 00:16:00,VALID,917.942,VALID,0,VALID,100,VALID,-0.0509425,VALID,19.6918,VALID,19,VALID,0.493712,
2005-11-19, 00:17:00,VALID,917.929,VALID,0,VALID,100,VALID,-0.0679233,VALID,19.6888,VALID,20,VALID,0.858648,
2005-11-19, 00:18:00,VALID,917.914,VALID,0,VALID,100,VALID,-0.0169808,VALID,19.6858,VALID,12,VALID,0.632473,
2005-11-19, 00:19:00,VALID,917.908,VALID,0,VALID,100,VALID,-0.0169808,VALID,19.685,VALID,14,VALID,0.507999,
2005-11-19, 00:20:00,VALID,917.88,VALID,0,VALID,100,VALID,-0.0339617,VALID,19.6726,VALID,29,VALID,0.665551,
2005-11-19, 00:21:00,VALID,917.881,VALID,0,VALID,100,VALID,-0.0169808,VALID,19.6689,VALID,27,VALID,0.481468,
2005-11-19, 00:22:00,VALID,917.862,VALID,0,VALID,100,VALID,0,VALID,19.656,VALID,16,VALID,0.662729,
2005-11-19, 00:23:00,VALID,917.848,VALID,0,VALID,100,VALID,0,VALID,19.6532,VALID,5,VALID,0.567827,
2005-11-19, 00:24:00,VALID,917.844,VALID,0,VALID,100,VALID,0,VALID,19.6398,VALID,25,VALID,0.619618,
2005-11-19, 00:25:00,VALID,917.84,VALID,0,VALID,100,VALID,0,VALID,19.6361,VALID,16,VALID,0.605283,
2005-11-19, 00:26:00,VALID,917.84,VALID,0,VALID,100,VALID,-0.0339617,VALID,19.6366,VALID,24,VALID,0.727273,
2005-11-19, 00:27:00,VALID,917.836,VALID,0,VALID,100,VALID,-0.0509425,VALID,19.6301,VALID,13,VALID,0.574929,
2005-11-19, 00:28:00,VALID,917.841,VALID,0,VALID,100,VALID,-0.0169808,VALID,19.6338,VALID,13,VALID,0.656822,
2005-11-19, 00:29:00,VALID,917.842,VALID,0,VALID,100,VALID,0,VALID,19.6212,VALID,6,VALID,0.836124,
2005-11-19, 00:30:00,VALID,917.839,VALID,0,VALID,100,VALID,-0.0169808,VALID,19.6105,VALID,6,VALID,0.489462,
2005-11-19, 00:31:00,VALID,917.851,VALID,0,VALID,100,VALID,0,VALID,19.6139,VALID,16,VALID,0.684613,
2005-11-19, 00:32:00,VALID,917.841,VALID,0,VALID,100,VALID,-0.0169808,VALID,19.6139,VALID,19,VALID,0.576265,
2005-11-19, 00:33:00,VALID,917.823,VALID,0,VALID,100,VALID,0,VALID,19.6306,VALID,21,VALID,0.394176,
2005-11-19, 00:34:00,VALID,917.828,VALID,0,VALID,100,VALID,-0.0339617,VALID,19.6435,VALID,32,VALID,0.401677,
2005-11-19, 00:35:00,VALID,917.828,VALID,0,VALID,100,VALID,-0.0339617,VALID,19.6468,VALID,18,VALID,0.427641,
2005-11-19, 00:36:00,VALID,917.827,VALID,0,VALID,100,VALID,-0.0339617,VALID,19.64,VALID,4,VALID,0.304688,
2005-11-19, 00:37:00,VALID,917.82,VALID,0,VALID,100,VALID,0,VALID,19.6333,VALID,346,VALID,0.249809,
2005-11-19, 00:38:00,VALID,917.808,VALID,0,VALID,100,VALID,-0.0339617,VALID,19.6368,VALID,346,VALID,0.458705,
2005-11-19, 00:39:00,VALID,917.805,VALID,0,VALID,100,VALID,-0.0169808,VALID,19.6174,VALID,346,VALID,0.304878,
2005-11-19, 00:40:00,VALID,917.793,VALID,0,VALID,100,VALID,-0.0169808,VALID,19.6147,VALID,346,VALID,0.149132,
2005-11-19, 00:41:00,VALID,917.78,VALID,0,VALID,100,VALID,-0.0509425,VALID,19.6241,VALID,346,VALID,0.0855655,
2005-11-19, 00:42:00,VALID,917.774,VALID,0,VALID,100,VALID,-0.0169808,VALID,19.6239,VALID,346,VALID,0.0614099,
2005-11-19, 00:43:00,VALID,917.777,VALID,0,VALID,100,VALID,-0.0169808,VALID,19.6239,VALID,346,VALID,0.0252976,
2005-11-19, 00:44:00,VALID,917.764,VALID,0,VALID,100,VALID,-0.0169808,VALID,19.6438,VALID,346,VALID,0.0328852,
2005-11-19, 00:45:00,VALID,917.75,VALID,0,VALID,100,VALID,-0.0509425,VALID,19.6336,VALID,346,VALID,0.0224359,
2005-11-19, 00:46:00,VALID,917.764,VALID,0,VALID,100,VALID,-0.0509425,VALID,19.6532,VALID,346,VALID,0.164583,
2005-11-19, 00:47:00,VALID,917.762,VALID,0,VALID,100,VALID,0,VALID,19.6468,VALID,346,VALID,0.0672554,
2005-11-19, 00:48:00,VALID,917.755,VALID,0,VALID,100,VALID,-0.0339617,VALID,19.6567,VALID,346,VALID,0,
2005-11-19, 00:49:00,VALID,917.756,VALID,0,VALID,100,VALID,-0.0509425,VALID,19.6592,VALID,346,VALID,0.0863095,
2005-11-19, 00:50:00,VALID,917.75,VALID,0,VALID,100,VALID,-0.0339617,VALID,19.6497,VALID,346,VALID,0.120584,
2005-11-19, 00:51:00,VALID,917.741,VALID,0,VALID,100,VALID,-0.0169808,VALID,19.6661,VALID,348,VALID,0.387305,
2005-11-19, 00:52:00,VALID,917.745,VALID,0,VALID,100,VALID,-0.0509425,VALID,19.6527,VALID,1,VALID,0.493862,
2005-11-19, 00:53:00,VALID,917.74,VALID,0,VALID,100,VALID,-0.0509425,VALID,19.6304,VALID,3,VALID,0.404615,
2005-11-19, 00:54:00,VALID,917.716,VALID,0,VALID,100,VALID,-0.0339617,VALID,19.6139,VALID,334,VALID,0.414444,
2005-11-19, 00:55:00,VALID,917.711,VALID,0,VALID,100,VALID,-0.0339617,VALID,19.6112,VALID,330,VALID,0.187153,
2005-11-19, 00:56:00,VALID,917.712,VALID,0,VALID,100,VALID,-0.0509425,VALID,19.6177,VALID,329,VALID,0.413318,
2005-11-19, 00:57:00,VALID,917.707,VALID,0,VALID,100,VALID,-0.0509425,VALID,19.6043,VALID,329,VALID,0.153392,
2005-11-19, 00:58:00,VALID,917.702,VALID,0,VALID,100,VALID,-0.0169808,VALID,19.598,VALID,328,VALID,0.471467,
2005-11-19, 00:59:00,VALID,917.705,VALID,0,VALID,100,VALID,0,VALID,19.5975,VALID,324,VALID,0.367569,
2005-11-19, 01:00:00,VALID,917.698,VALID,0,VALID,100,VALID,-0.0509425,VALID,19.6142,VALID,318,VALID,0.211825,
2005-11-19, 01:01:00,VALID,917.695,VALID,0,VALID,100,VALID,-0.0339617,VALID,19.6371,VALID,318,VALID,0.0926599,
2005-11-19, 01:02:00,VALID,917.683,VALID,0,VALID,100,VALID,-0.0679233,VALID,19.6269,VALID,318,VALID,0.020419,
2005-11-19, 01:03:00,VALID,917.682,VALID,0,VALID,100,VALID,-0.0169808,VALID,19.6301,VALID,318,VALID,0.015625,
2005-11-19, 01:04:00,VALID,917.675,VALID,0,VALID,100,VALID,-0.0169808,VALID,19.6463,VALID,318,VALID,0.0386905,
2005-11-19, 01:05:00,VALID,917.67,VALID,0,VALID,100,VALID,-0.0509425,VALID,19.6398,VALID,318,VALID,0.0465116,
2005-11-19, 01:06:00,VALID,917.665,VALID,0,VALID,100,VALID,-0.0339617,VALID,19.6396,VALID,318,VALID,0.0590701,
2005-11-19, 01:07:00,VALID,917.65,VALID,0,VALID,100,VALID,0,VALID,19.6428,VALID,318,VALID,0,
2005-11-19, 01:08:00,VALID,917.627,VALID,0,VALID,100,VALID,-0.0169808,VALID,19.6622,VALID,318,VALID,0,
2005-11-19, 01:09:00,VALID,917.609,VALID,0,VALID,100,VALID,-0.0509425,VALID,19.6689,VALID,318,VALID,0,
2005-11-19, 01:10:00,VALID,917.581,VALID,0,VALID,100,VALID,-0.0509425,VALID,19.6729,VALID,318,VALID,0,
2005-11-19, 01:11:00,VALID,917.563,VALID,0,VALID,100,VALID,-0.0339617,VALID,19.6689,VALID,318,VALID,0.0567336,
2005-11-19, 01:12:00,VALID,917.545,VALID,0,VALID,100,VALID,-0.0339617,VALID,19.6589,VALID,318,VALID,0.167436,
2005-11-19, 01:13:00,VALID,917.526,VALID,0,VALID,100,VALID,-0.0169808,VALID,19.6753,VALID,318,VALID,0.195513,
2005-11-19, 01:14:00,VALID,917.5,VALID,0,VALID,100,VALID,-0.0169808,VALID,19.6783,VALID,318,VALID,0.0169837,
2005-11-19, 01:15:00,VALID,917.47,VALID,0,VALID,100,VALID,-0.0169808,VALID,19.6915,VALID,318,VALID,0,
2005-11-19, 01:16:00,VALID,917.425,VALID,0,VALID,100,VALID,-0.0509425,VALID,19.6982,VALID,318,VALID,0.0902344,
2005-11-19, 01:17:00,VALID,917.399,VALID,0,VALID,100,VALID,-0.0169808,VALID,19.685,VALID,327,VALID,0.336825,
2005-11-19, 01:18:00,VALID,917.373,VALID,0,VALID,100,VALID,-0.0169808,VALID,19.685,VALID,352,VALID,0.505394,
2005-11-19, 01:19:00,VALID,917.328,VALID,0,VALID,100,VALID,-0.0339617,VALID,19.6783,VALID,30,VALID,0.788707,
2005-11-19, 01:20:00,VALID,917.309,VALID,0,VALID,100,VALID,-0.0169808,VALID,19.6724,VALID,39,VALID,0.985828,
2005-11-19, 01:21:00,VALID,917.287,VALID,0,VALID,100,VALID,0,VALID,19.6532,VALID,32,VALID,0.954215,
2005-11-19, 01:22:00,VALID,917.275,VALID,0,VALID,100,VALID,-0.0169808,VALID,19.6463,VALID,23,VALID,0.71224,
2005-11-19, 01:23:00,VALID,917.268,VALID,0,VALID,100,VALID,0,VALID,19.643,VALID,9,VALID,1.04002,
2005-11-19, 01:24:00,VALID,917.267,VALID,0,VALID,100,VALID,-0.0169808,VALID,19.6234,VALID,15,VALID,1.36101,
2005-11-19, 01:25:00,VALID,917.261,VALID,0,VALID,100,VALID,0.0169808,VALID,19.6366,VALID,24,VALID,1.125,
2005-11-19, 01:26:00,VALID,917.249,VALID,0,VALID,100,VALID,-0.0169808,VALID,19.6398,VALID,22,VALID,1.07246,
2005-11-19, 01:27:00,VALID,917.247,VALID,0,VALID,100,VALID,-0.0509425,VALID,19.6371,VALID,17,VALID,0.904916,
2005-11-19, 01:28:00,VALID,917.228,VALID,0,VALID,100,VALID,-0.0509425,VALID,19.65,VALID,16,VALID,0.988715,
2005-11-19, 01:29:00,VALID,917.224,VALID,0,VALID,100,VALID,-0.0509425,VALID,19.6435,VALID,18,VALID,0.591844,
2005-11-19, 01:30:00,VALID,917.211,VALID,0,VALID,100,VALID,-0.0509425,VALID,19.6403,VALID,8,VALID,0.504954,
2005-11-19, 01:31:00,VALID,917.192,VALID,0,VALID,100,VALID,-0.0169808,VALID,19.6433,VALID,1,VALID,0.332386,
2005-11-19, 01:32:00,VALID,917.186,VALID,0,VALID,100,VALID,-0.0339617,VALID,19.6266,VALID,1,VALID,0.512649,
2005-11-19, 01:33:00,VALID,917.171,VALID,0,VALID,100,VALID,-0.0169808,VALID,19.6304,VALID,358,VALID,0.158537,
2005-11-19, 01:34:00,VALID,917.183,VALID,0,VALID,100,VALID,0,VALID,19.64,VALID,358,VALID,0.0159801,
2005-11-19, 01:35:00,VALID,917.172,VALID,0,VALID,100,VALID,-0.0679233,VALID,19.6624,VALID,358,VALID,0.0907738,
2005-11-19, 01:36:00,VALID,917.168,VALID,0,VALID,100,VALID,-0.0169808,VALID,19.6661,VALID,354,VALID,0.169872,
2005-11-19, 01:37:00,VALID,917.158,VALID,0,VALID,100,VALID,0,VALID,19.6433,VALID,355,VALID,0.635298,
2005-11-19, 01:38:00,VALID,917.159,VALID,0,VALID,100,VALID,-0.0169808,VALID,19.6435,VALID,3,VALID,0.179878,
2005-11-19, 01:39:00,VALID,917.154,VALID,0,VALID,100,VALID,0,VALID,19.6433,VALID,3,VALID,0.241997,
2005-11-19, 01:40:00,VALID,917.153,VALID,0,VALID,100,VALID,-0.0169808,VALID,19.6299,VALID,3,VALID,0.257031,
2005-11-19, 01:41:00,VALID,917.139,VALID,0,VALID,100,VALID,0,VALID,19.6236,VALID,3,VALID,0.249818,
2005-11-19, 01:42:00,VALID,917.141,VALID,0,VALID,100,VALID,0,VALID,19.6301,VALID,3,VALID,0.22154,
2005-11-19, 01:43:00,VALID,917.123,VALID,0,VALID,100,VALID,-0.0169808,VALID,19.6301,VALID,3,VALID,0.28032,
2005-11-19, 01:44:00,VALID,917.114,VALID,0,VALID,100,VALID,-0.0679233,VALID,19.6433,VALID,11,VALID,0.548735,
2005-11-19, 01:45:00,VALID,917.104,VALID,0,VALID,100,VALID,-0.0339617,VALID,19.6592,VALID,15,VALID,0.665305,
2005-11-19, 01:46:00,VALID,917.116,VALID,0,VALID,100,VALID,-0.0169808,VALID,19.6433,VALID,19,VALID,0.156783,
2005-11-19, 01:47:00,VALID,917.106,VALID,0,VALID,100,VALID,-0.0169808,VALID,19.65,VALID,19,VALID,0.0623338,
2005-11-19, 01:48:00,VALID,917.085,VALID,0,VALID,100,VALID,-0.0509425,VALID,19.6363,VALID,19,VALID,0.00576637,
2005-11-19, 01:49:00,VALID,917.082,VALID,0,VALID,100,VALID,-0.0339617,VALID,19.6231,VALID,19,VALID,0.366016,
2005-11-19, 01:50:00,VALID,917.075,VALID,0,VALID,100,VALID,-0.0169808,VALID,19.6234,VALID,19,VALID,0.171113,
2005-11-19, 01:51:00,VALID,917.053,VALID,0,VALID,100,VALID,-0.0339617,VALID,19.6505,VALID,19,VALID,0.00892857,
2005-11-19, 01:52:00,VALID,917.039,VALID,0,VALID,100,VALID,-0.0339617,VALID,19.6537,VALID,19,VALID,0,
2005-11-19, 01:53:00,VALID,917.021,VALID,0,VALID,100,VALID,-0.0679233,VALID,19.6594,VALID,19,VALID,0,
2005-11-19, 01:54:00,VALID,917.016,VALID,0,VALID,100,VALID,-0.0679233,VALID,19.6497,VALID,20,VALID,0.326349,
2005-11-19, 01:55:00,VALID,917.007,VALID,0,VALID,100,VALID,-0.0339617,VALID,19.6565,VALID,18,VALID,0.178199,
2005-11-19, 01:56:00,VALID,916.999,VALID,0,VALID,100,VALID,-0.101885,VALID,19.6632,VALID,18,VALID,0.0708705,
2005-11-19, 01:57:00,VALID,916.979,VALID,0,VALID,100,VALID,-0.0679233,VALID,19.6726,VALID,18,VALID,0.112909,
2005-11-19, 01:58:00,VALID,916.967,VALID,0,VALID,100,VALID,-0.0679233,VALID,19.6793,VALID,35,VALID,0.661458,
2005-11-19, 01:59:00,VALID,916.972,VALID,0,VALID,100,VALID,-0.0849042,VALID,19.6497,VALID,18,VALID,0.835565,
2005-11-19, 02:00:00,VALID,916.961,VALID,0,VALID,100,VALID,-0.101885,VALID,19.6408,VALID,8,VALID,0.988567,
2005-11-19, 02:01:00,VALID,916.952,VALID,0,VALID,100,VALID,-0.0679233,VALID,19.6308,VALID,12,VALID,1.02871,
2005-11-19, 02:02:00,VALID,916.939,VALID,0,VALID,100,VALID,-0.0339617,VALID,19.6139,VALID,16,VALID,1.02716,
2005-11-19, 02:03:00,VALID,916.924,VALID,0,VALID,100,VALID,-0.101885,VALID,19.6306,VALID,15,VALID,0.509146,
2005-11-19, 02:04:00,VALID,916.913,VALID,0,VALID,100,VALID,-0.0679233,VALID,19.6405,VALID,11,VALID,0.510938,
2005-11-19, 02:05:00,VALID,916.881,VALID,0,VALID,100,VALID,-0.0849042,VALID,19.6177,VALID,8,VALID,0.872456,
2005-11-19, 02:06:00,VALID,916.887,VALID,0,VALID,100,VALID,-0.0679233,VALID,19.6214,VALID,12,VALID,0.445313,
2005-11-19, 02:07:00,VALID,916.866,VALID,0,VALID,100,VALID,-0.0679233,VALID,19.6174,VALID,13,VALID,0.37221,
2005-11-19, 02:08:00,VALID,916.855,VALID,0,VALID,100,VALID,-0.0679233,VALID,19.6405,VALID,23,VALID,0.568229,
2005-11-19, 02:09:00,VALID,916.842,VALID,0,VALID,100,VALID,-0.0339617,VALID,19.6269,VALID,45,VALID,0.869792,
2005-11-19, 02:10:00,VALID,916.819,VALID,0,VALID,100,VALID,-0.0509425,VALID,19.6271,VALID,52,VALID,1.13654,
2005-11-19, 02:11:00,VALID,916.808,VALID,0,VALID,100,VALID,-0.0339617,VALID,19.6174,VALID,62,VALID,0.892299,
2005-11-19, 02:12:00,VALID,916.815,VALID,0,VALID,100,VALID,0,VALID,19.6045,VALID,61,VALID,0.455221,
2005-11-19, 02:13:00,VALID,916.83,VALID,0,VALID,100,VALID,-0.0339617,VALID,19.598,VALID,341,VALID,0.46733,
2005-11-19, 02:14:00,VALID,916.823,VALID,0,VALID,100,VALID,-0.0339617,VALID,19.6015,VALID,298,VALID,0.0788194,
2005-11-19, 02:15:00,VALID,916.799,VALID,0,VALID,100,VALID,-0.0679233,VALID,19.598,VALID,323,VALID,0.225391,
2005-11-19, 02:16:00,VALID,916.787,VALID,0,VALID,100,VALID,-0.0509425,VALID,19.6177,VALID,23,VALID,0.979106,
2005-11-19, 02:17:00,VALID,916.779,VALID,0,VALID,100,VALID,-0.0339617,VALID,19.6368,VALID,15,VALID,0.861779,
2005-11-19, 02:18:00,VALID,916.764,VALID,0,VALID,100,VALID,-0.0509425,VALID,19.6497,VALID,15,VALID,0.159299,
2005-11-19, 02:19:00,VALID,916.757,VALID,0,VALID,100,VALID,-0.0509425,VALID,19.6306,VALID,15,VALID,0,
2005-11-19, 02:20:00,VALID,916.76,VALID,0,VALID,100,VALID,-0.0679233,VALID,19.6045,VALID,15,VALID,0.212358,
2005-11-19, 02:21:00,VALID,916.754,VALID,0,VALID,100,VALID,-0.0339617,VALID,19.6045,VALID,14,VALID,0.723264,
2005-11-19, 02:22:01,VALID,916.759,VALID,0,VALID,100,VALID,-0.0339617,VALID,19.5687,VALID,345,VALID,0.882086,
2005-11-19, 02:23:01,VALID,916.744,VALID,0,VALID,100,VALID,-0.0339617,VALID,19.5011,VALID,354,VALID,0.587573,
2005-11-19, 02:24:00,VALID,916.732,VALID,0,VALID,100,VALID,-0.0339617,VALID,19.5108,VALID,354,VALID,0.805233,
2005-11-19, 02:25:00,VALID,916.722,VALID,0,VALID,100,VALID,-0.0169808,VALID,19.5105,VALID,10,VALID,0.824673,
2005-11-19, 02:26:00,VALID,916.716,VALID,0,VALID,100,VALID,-0.0339617,VALID,19.5043,VALID,9,VALID,1.05069,
2005-11-19, 02:27:00,VALID,916.7,VALID,0,VALID,100,VALID,-0.0169808,VALID,19.5105,VALID,348,VALID,0.500762,
2005-11-19, 02:28:00,VALID,916.687,VALID,0,VALID,100,VALID,0,VALID,19.5433,VALID,358,VALID,0.63101,
2005-11-19, 02:29:00,VALID,916.664,VALID,0,VALID,100,VALID,0,VALID,19.5329,VALID,11,VALID,1.49609,
2005-11-19, 02:30:01,VALID,916.659,VALID,0,VALID,100,VALID,-0.0169808,VALID,19.5364,VALID,8,VALID,0.852493,
2005-11-19, 02:31:00,VALID,916.651,VALID,0,VALID,100,VALID,-0.0679233,VALID,19.4559,VALID,327,VALID,0.918341,
2005-11-19, 02:32:00,VALID,916.658,VALID,0,VALID,100,VALID,-0.0679233,VALID,19.4986,VALID,16,VALID,1.11016,
2005-11-19, 02:33:01,VALID,916.637,VALID,0,VALID,100,VALID,-0.0679233,VALID,19.5008,VALID,16,VALID,1.00509,
2005-11-19, 02:34:00,VALID,916.613,VALID,0,VALID,100,VALID,-4.62593e-018,VALID,19.5299,VALID,15,VALID,1.61777,
2005-11-19, 02:35:00,VALID,916.598,VALID,0,VALID,100,VALID,0.0849042,VALID,19.5091,VALID,11,VALID,1.19158,
2005-11-19, 02:36:00,VALID,916.572,VALID,0,VALID,100,VALID,0.0849042,VALID,19.5165,VALID,24,VALID,1.28125,
2005-11-19, 02:37:00,VALID,916.543,VALID,0,VALID,100,VALID,0.0849042,VALID,19.4899,VALID,27,VALID,1.51262,
2005-11-19, 02:38:00,VALID,916.535,VALID,0,VALID,100,VALID,0.0339617,VALID,19.4837,VALID,13,VALID,0.784446,
2005-11-19, 02:39:00,VALID,916.506,VALID,0,VALID,100,VALID,0.0849042,VALID,19.4638,VALID,13,VALID,0.729651,
2005-11-19, 02:40:00,VALID,916.489,VALID,0,VALID,100,VALID,0.0679233,VALID,19.4544,VALID,5,VALID,0.487282,
2005-11-19, 02:41:00,VALID,916.47,VALID,0,VALID,100,VALID,0.0339617,VALID,19.4549,VALID,8,VALID,0.133003,
2005-11-19, 02:42:01,VALID,916.437,VALID,0,VALID,100,VALID,0.0509425,VALID,19.4511,VALID,8,VALID,0,
2005-11-19, 02:43:01,VALID,916.438,VALID,0,VALID,100,VALID,0.0679233,VALID,19.4447,VALID,8,VALID,0.00090843,
2005-11-19, 02:44:01,VALID,916.432,VALID,0,VALID,100,VALID,0.0509425,VALID,19.4482,VALID,8,VALID,0.00381098,
2005-11-19, 02:45:00,VALID,916.442,VALID,0,VALID,100,VALID,0.101885,VALID,19.4419,VALID,8,VALID,0.0262784,
2005-11-19, 02:46:00,VALID,916.432,VALID,0,VALID,100,VALID,0.0679233,VALID,19.4156,VALID,8,VALID,0.126302,
2005-11-19, 02:47:00,VALID,916.43,VALID,0,VALID,100,VALID,0.0509425,VALID,19.4156,VALID,8,VALID,0.275073,
2005-11-19, 02:48:01,VALID,916.403,VALID,0,VALID,100,VALID,0.0679233,VALID,19.432,VALID,8,VALID,0.212612,
2005-11-19, 02:49:00,VALID,916.373,VALID,0,VALID,100,VALID,0.0509425,VALID,19.4253,VALID,8,VALID,0.129112,
2005-11-19, 02:50:01,VALID,916.358,VALID,0,VALID,100,VALID,0.0169808,VALID,19.4161,VALID,8,VALID,0.107067,
2005-11-19, 02:51:00,VALID,916.356,VALID,0,VALID,100,VALID,0,VALID,19.4002,VALID,8,VALID,0.168713,
2005-11-19, 02:52:00,VALID,916.364,VALID,0,VALID,100,VALID,0,VALID,19.3967,VALID,8,VALID,0.199574,
2005-11-19, 02:53:00,VALID,916.362,VALID,0,VALID,100,VALID,0,VALID,19.3967,VALID,8,VALID,0.220385,
2005-11-19, 02:54:01,VALID,916.348,VALID,0,VALID,100,VALID,0,VALID,19.4002,VALID,8,VALID,0.326705,
2005-11-19, 02:55:00,VALID,916.341,VALID,0,VALID,100,VALID,0,VALID,19.4228,VALID,33,VALID,0.582711,
2005-11-19, 02:56:01,VALID,916.32,VALID,0,VALID,100,VALID,0,VALID,19.4325,VALID,39,VALID,0.512784,
2005-11-19, 02:57:00,VALID,916.292,VALID,0,VALID,100,VALID,0.0339617,VALID,19.4549,VALID,39,VALID,0.331287,
2005-11-19, 02:58:01,VALID,916.273,VALID,0,VALID,100,VALID,0,VALID,19.4613,VALID,39,VALID,0.256479,
2005-11-19, 02:59:01,VALID,916.282,VALID,0,VALID,100,VALID,0,VALID,19.4618,VALID,39,VALID,0.245276,
2005-11-19, 03:00:01,VALID,916.273,VALID,0,VALID,100,VALID,0,VALID,19.4651,VALID,39,VALID,0.15298,
2005-11-19, 03:01:01,VALID,916.269,VALID,0,VALID,100,VALID,0.0339617,VALID,19.4516,VALID,39,VALID,0.130208,
2005-11-19, 03:02:00,VALID,916.262,VALID,0,VALID,100,VALID,0.0339617,VALID,19.4514,VALID,39,VALID,0.0756479,
2005-11-19, 03:03:00,VALID,916.258,VALID,0,VALID,100,VALID,0,VALID,19.4519,VALID,39,VALID,0.0295516,
2005-11-19, 03:04:01,VALID,916.245,VALID,0,VALID,100,VALID,0,VALID,19.4549,VALID,39,VALID,0.369792,
2005-11-19, 03:05:00,VALID,916.239,VALID,0,VALID,100,VALID,0.0509425,VALID,19.4487,VALID,39,VALID,0.362909,
2005-11-19, 03:06:00,VALID,916.259,VALID,0,VALID,100,VALID,0,VALID,19.4387,VALID,39,VALID,0.311523,
2005-11-19, 03:07:00,VALID,916.241,VALID,0,VALID,100,VALID,0.0339617,VALID,19.4327,VALID,39,VALID,0.302827,
2005-11-19, 03:08:01,VALID,916.242,VALID,0,VALID,100,VALID,0,VALID,19.4064,VALID,39,VALID,0.321584,
2005-11-19, 03:09:00,VALID,916.259,VALID,0,VALID,100,VALID,-0.0169808,VALID,19.4039,VALID,39,VALID,0.0193452,
2005-11-19, 03:10:00,VALID,916.265,VALID,0,VALID,100,VALID,0.0169808,VALID,19.4196,VALID,39,VALID,0,
2005-11-19, 03:11:01,VALID,916.258,VALID,0,VALID,100,VALID,0,VALID,19.4198,VALID,39,VALID,0.157885,
2005-11-19, 03:12:00,VALID,916.263,VALID,0,VALID,100,VALID,0.0339617,VALID,19.4099,VALID,39,VALID,0.256288,
2005-11-19, 03:13:00,VALID,916.252,VALID,0,VALID,100,VALID,0.0339617,VALID,19.3932,VALID,39,VALID,0.206012,
2005-11-19, 03:14:00,VALID,916.24,VALID,0,VALID,100,VALID,0.0169808,VALID,19.3873,VALID,39,VALID,0.0796131,
2005-11-19, 03:15:01,VALID,916.234,VALID,0,VALID,100,VALID,0,VALID,19.3776,VALID,39,VALID,0,
2005-11-19, 03:16:00,VALID,916.223,VALID,0,VALID,100,VALID,0.0169808,VALID,19.3713,VALID,39,VALID,0.0833939,
2005-11-19, 03:17:01,VALID,916.213,VALID,0,VALID,100,VALID,0.0339617,VALID,19.3651,VALID,39,VALID,0.221657,
2005-11-19, 03:18:01,VALID,916.189,VALID,0,VALID,100,VALID,0.0169808,VALID,19.3418,VALID,39,VALID,0.402253,
2005-11-19, 03:19:00,VALID,916.191,VALID,0,VALID,100,VALID,0.0509425,VALID,19.3157,VALID,47,VALID,0.554865,
2005-11-19, 03:20:00,VALID,916.168,VALID,0,VALID,100,VALID,0.0169808,VALID,19.3196,VALID,52,VALID,0.58418,
2005-11-19, 03:21:01,VALID,916.143,VALID,0,VALID,100,VALID,0,VALID,19.3092,VALID,54,VALID,0.556734,
2005-11-19, 03:22:00,VALID,916.128,VALID,0,VALID,100,VALID,0.0339617,VALID,19.3353,VALID,89,VALID,0.719283,
2005-11-19, 03:23:00,VALID,916.107,VALID,0,VALID,100,VALID,0.0509425,VALID,19.3512,VALID,98,VALID,0.677871,
2005-11-19, 03:24:01,VALID,916.1,VALID,0,VALID,100,VALID,0,VALID,19.3743,VALID,100,VALID,0.551829,
2005-11-19, 03:25:00,VALID,916.091,VALID,0,VALID,100,VALID,0.0169808,VALID,19.3674,VALID,112,VALID,0.44401,
2005-11-19, 03:26:01,VALID,916.093,VALID,0,VALID,100,VALID,0.0339617,VALID,19.3743,VALID,110,VALID,0.411458,
2005-11-19, 03:27:00,VALID,916.095,VALID,0,VALID,100,VALID,-0.0339617,VALID,19.3716,VALID,104,VALID,0.542878,
2005-11-19, 03:28:00,VALID,916.092,VALID,0,VALID,100,VALID,0.0169808,VALID,19.3743,VALID,103,VALID,0.27793,
2005-11-19, 03:29:00,VALID,916.092,VALID,0,VALID,100,VALID,0.0509425,VALID,19.3713,VALID,103,VALID,0.246094,
2005-11-19, 03:30:00,VALID,916.09,VALID,0,VALID,100,VALID,0.0679233,VALID,19.381,VALID,103,VALID,0.188408,
2005-11-19, 03:31:01,VALID,916.11,VALID,0,VALID,100,VALID,0,VALID,19.3577,VALID,103,VALID,0.275254,
2005-11-19, 03:32:00,VALID,916.113,VALID,0,VALID,100,VALID,0,VALID,19.3612,VALID,103,VALID,0.0128205,
2005-11-19, 03:33:01,VALID,916.136,VALID,0,VALID,100,VALID,0.0169808,VALID,19.3582,VALID,103,VALID,0.00106534,
2005-11-19, 03:34:00,VALID,916.138,VALID,0,VALID,100,VALID,0.0169808,VALID,19.3617,VALID,103,VALID,0.159299,
2005-11-19, 03:35:01,VALID,916.135,VALID,0,VALID,100,VALID,0,VALID,19.352,VALID,103,VALID,0.499809,
2005-11-19, 03:36:00,VALID,916.124,VALID,0,VALID,100,VALID,0,VALID,19.352,VALID,103,VALID,0.695676,
2005-11-19, 03:37:00,VALID,916.117,VALID,0,VALID,100,VALID,0,VALID,19.3425,VALID,97,VALID,0.598264,
2005-11-19, 03:38:00,VALID,916.111,VALID,0,VALID,100,VALID,0,VALID,19.3457,VALID,97,VALID,0.136328,
2005-11-19, 03:39:00,VALID,916.112,VALID,0,VALID,100,VALID,0,VALID,19.346,VALID,95,VALID,0.509448,
2005-11-19, 03:40:01,VALID,916.101,VALID,0,VALID,100,VALID,0.0339617,VALID,19.336,VALID,94,VALID,0.265439,
2005-11-19, 03:41:01,VALID,916.073,VALID,0,VALID,100,VALID,0,VALID,19.336,VALID,94,VALID,0.102095,
2005-11-19, 03:42:00,VALID,916.057,VALID,0,VALID,100,VALID,0.0509425,VALID,19.3296,VALID,94,VALID,0.448552,
2005-11-19, 03:43:01,VALID,916.031,VALID,0,VALID,100,VALID,0.0169808,VALID,19.3199,VALID,97,VALID,0.557231,